Погода в Меленске

Россия / Брянская область     52°37′57″N   32°55′40″E
темп.,
°C
ветер,
м/с
пор.,
м/с
влажн.,
%
обл.,
%
осадки,
мм/ч
давл.,
гПа
погр.,
м
10 апреля, сб
сб1000:00+2ююз35655 0.0 102674
03:00+1ююз35705 0.0 102667
06:000ю35755 0.0 102686
09:00+5ю58604 0.0 1027373
12:00+9ююз67435 0.0 10261742
15:00+10ююз67395 0.0 10251873
18:00+10ююз47475 0.0 1024674
21:00+5ю37640 0.0 1026111
11 апреля, вс
вс1100:00+4ююз38670 0.0 1027143
03:00+3ююз38690 0.0 1027142
06:00+2ююз35710 0.0 102867
09:00+7ююз35580 0.0 1029251
12:00+12ююз34440 0.0 1029852
15:00+14ю22390 0.0 10291301
18:00+13вюв23460 0.0 1028146
21:00+9в22580 0.0 102916
12 апреля, пн
пн1200:00+6вюв22671 0.0 103018
03:00+5всв3371100 0.0 102932
06:00+4всв367558 0.0 102990
09:00+8всв5959100 0.0 1027421
12:00+11в5653100 0.0 1025684
15:00+9всв3586100 1.0 1024340
18:00+11в2577100 0.3 1023311
21:00+9всв2388100 0.4 102360
13 апреля, вт
вт1300:00+9всв2490100 0.1 102196
03:00+9всв2391100 0.1 102051
06:00+9вюв348899 0.0 102083
09:00+12юв497878 0.0 1020405
12:00+14юв71073100 0.0 10191136
15:00+11ююв5993100 0.3 1020618
18:00+10ююв5995100 0.5 1020435
21:00+9юв3797100 0.7 1020186
14 апреля, ср
ср1400:00+10юв3695100 0.0 1019149
03:00+9юв359456 0.0 1018140
06:00+9юв3594100 0.0 1018105
09:00+9юв2493100 0.0 1017122
12:00+11ююв3588100 0.1 1016330
15:00+11юв348674 0.3 1016294
18:00+13ююв477591 0.1 1014468
21:00+9юв339048 0.1 101546